STARLINK-36811

Last updated on Sun Mar 15 2026 00:02:06 GMT+0000 (Coordinated Universal Time)

1 67808U 26032M 26073.48986238 .00165258 00000+0 10860-2 0 9991 2 67808 97.2840 260.2841 0001619 39.5522 320.5861 15.75223248 5545
UTC large
Height (km)
Speed (km/s)
/
Latitude / Longitude
Inclination (degrees)
Orbital Period (minutes)
Azimuth
Elevation
Range (km)
Doppler Factor

Next 0 passes for location: London (51.5072 / 0.1276)

Sorry there are no passes over London.